Location: Unspecified
(0.0000°N, 0.0000°E)
Time: 07:44:25
(UTC+01:00)

Cosmos 1933 - Visible Passes

Search period start: 10 February 2016 00:00
Search period end: 20 February 2016 00:00
Orbit: 550 x 567 km, 82.5° (Epoch: 09 February)

Date Brightness Start Highest point End Pass type
(mag) Time Alt. Az. Time Alt. Az. Time Alt. Az.
10 Feb 3.3 06:18:16 10° S 06:22:23 78° W 06:26:28 10° N visible
11 Feb 3.3 06:16:39 10° SSW 06:20:43 62° W 06:24:44 10° N visible
12 Feb 3.5 06:15:03 10° SSW 06:19:02 49° W 06:22:58 10° NNW visible
13 Feb 3.8 06:13:30 10° SSW 06:17:21 39° W 06:21:10 10° NNW visible
14 Feb 4.1 06:12:01 10° SSW 06:15:40 31° W 06:19:18 10° NNW visible
15 Feb 4.3 06:10:34 10° SW 06:13:58 25° W 06:14:31 25° WNW visible
16 Feb 5.7 06:09:11 10° SW 06:09:19 11° SW 06:09:19 11° SW visible
